COSMOS 1808

Satellite information

Favourite Embed

Satellite Type and Status

PAYLOADIN ORBIT

Key statistics

Satellite COSMOS 1808 at a glance.

Uptime

14023

Days in orbit

Revolutions

≈ 13.7

Per day

Orbit

LEO

Low Earth Orbit

Inclination

82.9

Latest

Satellite identification and parameters

Extended collection of information and parameters for COSMOS 1808.

Object identification

Identified? True

Debris? False

Object name: COSMOS 1808

International designator: 1986-100A

Object number (NORAD): 17239

Object ID (CCSDS): 17239

Country: COMMONWEALTH OF INDEPENDENT STATES (CIS)

Current information (Y/N): Y

RCS size: LARGE

Orbital parameters

Period: 104.941 minutes

Inclination: 82.9311 deg

SMA: 7369.808 km

Apoapsis: 1014.672 km

Periapsis: 968.674 km

RAAN: 111.3221 deg

Eccentricy: 0.0031207

Argument of periapsis: 266.742 deg

Mean anomaly: 266.8531 deg

Mean motion: 13.72203333 rev/day

Mean motion (dot): 0.00000087 rev/day2

B* drag term: 0.000079058 1/REarth

Two-line elements (TLE)

Creation date: May 8, 2025, 3:01 a.m.

Reference frame: TEME

Reference center: EARTH

Epoch: May 7, 2025, 5:42 p.m. UTC

TLE line 0: 0 COSMOS 1808

TLE line 1: 1 17239U 86100A 25127.73787631 .00000087 00000-0 79058-4 0 9994

TLE line 2: 2 17239 82.9311 111.3221 0031207 266.7420 266.8531 13.72203333921818

Live tracking on map

Real-time ground track for satellite COSMOS 1808.

In-orbit conjunctions

There are no conjunctions computed for COSMOS 1808, at the moment. Check back to stay up to date, as we update our databases every day.

Go to all conjunctions

Associated space launch

Navigation satellite providing location information for the Tsiklon-B navigation system

COSMOS 1808 was lifted into orbit during the mission ‘Kosmos-3M | Parus 57’, on board a Kosmos-3M space rocket.

The launch took place on Dec. 17, 1986, 5:02 p.m. from 132/1 (132L).

For more information about the launch, click the button.

Launch to space Kosmos-3M | Parus 57
Kosmos-3M | Parus 57

Agency: N/A

Status: Launch Successful

Launch date: Dec. 17, 1986, 5:02 p.m. UTC

Rocket: Kosmos-3M

Launch pad: 132/1 (132L)

Location: Plesetsk Cosmodrome, Russian Federation

...

Latest news about this satellite

There are no fresh news available about this satellite. Check back as we update our databases every day.


Newsletter sign-up

Weekly statistics, charts and insights to help you stay on top of the space industry.